| time (UTC) | temp C | wind direction | speed KPH | gust KPH | rain 1hr cm | rain 24hr cm | rain mn cm | humidity % | barometer mb |
| 20260507194520 | 33 | 80 | 8.0 | 16.1 | 0.00 | 0.00 | 0.00 | 64 | 1016.9 |
| 20260507193023 | 34 | 69 | 9.7 | 17.7 | 0.00 | 0.00 | 0.00 | 62 | 1017.0 |
| 20260507191516 | 34 | 84 | 6.4 | 16.1 | 0.00 | 0.00 | 0.00 | 62 | 1017.2 |
| 20260507190031 | 35 | 65 | 11.3 | 16.1 | 0.00 | 0.00 | 0.00 | 62 | 1017.3 |
| 20260507184518 | 35 | 77 | 9.7 | 14.5 | 0.00 | 0.00 | 0.00 | 61 | 1017.3 |
| 20260507183018 | 35 | 90 | 11.3 | 16.1 | 0.00 | 0.00 | 0.00 | 61 | 1017.5 |
| 20260507181511 | 35 | 63 | 11.3 | 17.7 | 0.00 | 0.00 | 0.00 | 62 | 1017.6 |
| 20260507180012 | 35 | 87 | 6.4 | 14.5 | 0.00 | 0.00 | 0.00 | 61 | 1017.7 |
| 20260507174510 | 36 | 76 | 8.0 | 14.5 | 0.00 | 0.00 | 0.00 | 60 | 1017.9 |
| 20260507173007 | 36 | 65 | 6.4 | 12.9 | 0.00 | 0.00 | 0.00 | 60 | 1018.1 |
| 20260507171506 | 36 | 65 | 3.2 | 9.7 | 0.00 | 0.00 | 0.00 | 59 | 1018.2 |
| 20260507170004 | 36 | 76 | 4.8 | 12.9 | 0.00 | 0.00 | 0.00 | 60 | 1018.2 |
| 20260507164502 | 36 | 69 | 6.4 | 14.5 | 0.00 | 0.00 | 0.00 | 61 | 1018.5 |
| 20260507163102 | 35 | 69 | 8.0 | 14.5 | 0.00 | 0.00 | 0.00 | 61 | 1018.7 |
| 20260507161559 | 35 | 67 | 9.7 | 14.5 | 0.00 | 0.00 | 0.00 | 61 | 1018.9 |
| 20260507160101 | 35 | 55 | 8.0 | 16.1 | 0.00 | 0.00 | 0.00 | 62 | 1019.0 |
| 20260507154552 | 34 | 72 | 8.0 | 17.7 | 0.00 | 0.00 | 0.00 | 64 | 1019.1 |
| 20260507153055 | 35 | 74 | 11.3 | 17.7 | 0.00 | 0.00 | 0.00 | 63 | 1019.3 |
| 20260507151549 | 34 | 93 | 9.7 | 17.7 | 0.00 | 0.00 | 0.00 | 64 | 1019.2 |
| 20260507150045 | 34 | 65 | 11.3 | 17.7 | 0.00 | 0.00 | 0.00 | 64 | 1019.2 |
| 20260507144640 | 33 | 83 | 9.7 | 20.9 | 0.00 | 0.00 | 0.00 | 65 | 1019.1 |
| 20260507143036 | 32 | 61 | 11.3 | 20.9 | 0.00 | 0.00 | 0.00 | 68 | 1018.9 |
| 20260507141536 | 31 | 51 | 14.5 | 22.5 | 0.00 | 0.00 | 0.00 | 71 | 1018.9 |
| 20260507140045 | 32 | 53 | 9.7 | 22.5 | 0.00 | 0.00 | 0.00 | 70 | 1018.8 |
| 20260507134531 | 31 | 72 | 12.9 | 24.1 | 0.00 | 0.00 | 0.00 | 72 | 1018.9 |
| 20260507133026 | 30 | 67 | 6.4 | 24.1 | 0.00 | 0.00 | 0.00 | 73 | 1018.9 |
| 20260507131525 | 30 | 71 | 9.7 | 24.1 | 0.00 | 0.00 | 0.00 | 75 | 1019.0 |
| 20260507130023 | 30 | 67 | 12.9 | 25.7 | 0.00 | 0.00 | 0.00 | 76 | 1019.1 |
| 20260507124523 | 29 | 86 | 9.7 | 24.1 | 0.00 | 0.00 | 0.00 | 77 | 1019.1 |
| 20260507123017 | 28 | 66 | 4.8 | 25.7 | 0.00 | 0.00 | 0.00 | 80 | 1018.8 |
| 20260507121514 | 27 | 86 | 1.6 | 22.5 | 0.00 | 0.00 | 0.00 | 80 | 1018.9 |
| 20260507120012 | 27 | 75 | 8.0 | 16.1 | 0.00 | 0.00 | 0.00 | 81 | 1018.9 |
| 20260507114509 | 27 | 106 | 9.7 | 17.7 | 0.00 | 0.00 | 0.00 | 82 | 1019.0 |
| 20260507113009 | 26 | 78 | 3.2 | 9.7 | 0.00 | 0.00 | 0.00 | 83 | 1019.0 |
| 20260507111510 | 26 | 84 | 1.6 | 8.0 | 0.00 | 0.00 | 0.00 | 83 | 1018.8 |
| 20260507110006 | 26 | 90 | 4.8 | 11.3 | 0.00 | 0.00 | 0.00 | 83 | 1018.8 |
| 20260507104504 | 26 | 76 | 8.0 | 20.9 | 0.00 | 0.00 | 0.00 | 84 | 1018.8 |
| 20260507103002 | 26 | 65 | 8.0 | 16.1 | 0.00 | 0.00 | 0.00 | 84 | 1018.6 |
| 20260507101502 | 26 | 126 | 1.6 | 9.7 | 0.00 | 0.00 | 0.00 | 84 | 1018.3 |
| 20260507100003 | 26 | 219 | 0.0 | 9.7 | 0.00 | 0.00 | 0.00 | 84 | 1018.3 |
| 20260507094559 | 26 | 136 | 0.0 | 14.5 | 0.00 | 0.00 | 0.00 | 84 | 1018.2 |
| 20260507093100 | 26 | 159 | 1.6 | 17.7 | 0.00 | 0.00 | 0.00 | 84 | 1018.1 |
| 20260507091558 | 26 | 198 | 0.0 | 14.5 | 0.00 | 0.00 | 0.00 | 84 | 1017.9 |
| 20260507090054 | 26 | 128 | 0.0 | 19.3 | 0.00 | 0.00 | 0.00 | 84 | 1017.8 |
| 20260507084555 | 26 | 84 | 6.4 | 14.5 | 0.00 | 0.00 | 0.00 | 84 | 1017.8 |
| 20260507083057 | 26 | 83 | 0.0 | 12.9 | 0.00 | 0.00 | 0.00 | 84 | 1017.7 |
| 20260507081552 | 26 | 113 | 0.0 | 8.0 | 0.00 | 0.00 | 0.00 | 84 | 1017.8 |
| 20260507080114 | 26 | 90 | 3.2 | 11.3 | 0.00 | 0.00 | 0.00 | 83 | 1017.7 |
| 20260507074557 | 26 | 117 | 6.4 | 12.9 | 0.00 | 0.00 | 0.00 | 83 | 1017.7 |
| 20260507073058 | 26 | 175 | 0.0 | 11.3 | 0.00 | 0.00 | 0.00 | 83 | 1017.7 |
| 20260507071600 | 26 | 188 | 4.8 | 12.9 | 0.00 | 0.00 | 0.00 | 83 | 1017.8 |
| 20260507070048 | 26 | 102 | 0.0 | 6.4 | 0.00 | 0.00 | 0.00 | 83 | 1017.9 |
| 20260507064551 | 26 | 128 | 0.0 | 6.4 | 0.00 | 0.00 | 0.00 | 83 | 1018.0 |
| 20260507063043 | 26 | 140 | 0.0 | 8.0 | 0.00 | 0.00 | 0.00 | 83 | 1018.2 |
| 20260507061543 | 26 | 206 | 1.6 | 9.7 | 0.00 | 0.00 | 0.00 | 83 | 1018.3 |
| 20260507060040 | 26 | 203 | 0.0 | 12.9 | 0.00 | 0.00 | 0.00 | 83 | 1018.6 |
| 20260507054548 | 26 | 86 | 1.6 | 9.7 | 0.00 | 0.00 | 0.00 | 83 | 1018.9 |
| 20260507053045 | 26 | 46 | 3.2 | 14.5 | 0.00 | 0.00 | 0.00 | 83 | 1018.8 |
| 20260507051537 | 26 | 101 | 1.6 | 12.9 | 0.00 | 0.00 | 0.00 | 83 | 1018.9 |
| 20260507050035 | 26 | 94 | 0.0 | 22.5 | 0.00 | 0.00 | 0.00 | 83 | 1019.2 |
| 20260507044533 | 26 | 82 | 3.2 | 16.1 | 0.00 | 0.00 | 0.00 | 82 | 1019.4 |
| 20260507043035 | 26 | 86 | 11.3 | 17.7 | 0.00 | 0.00 | 0.00 | 82 | 1019.6 |
| 20260507041526 | 26 | 67 | 8.0 | 20.9 | 0.00 | 0.00 | 0.00 | 82 | 1019.8 |
| 20260507040023 | 26 | 80 | 4.8 | 24.1 | 0.00 | 0.00 | 0.00 | 82 | 1019.8 |
| 20260507034521 | 27 | 66 | 6.4 | 22.5 | 0.00 | 0.00 | 0.00 | 82 | 1019.9 |
| 20260507033021 | 27 | 132 | 1.6 | 12.9 | 0.00 | 0.00 | 0.00 | 82 | 1020.1 |
| 20260507031520 | 27 | 186 | 1.6 | 16.1 | 0.00 | 0.00 | 0.00 | 81 | 1020.3 |
| 20260507030020 | 27 | 103 | 0.0 | 20.9 | 0.00 | 0.00 | 0.00 | 82 | 1020.4 |
| 20260507024518 | 27 | 87 | 4.8 | 20.9 | 0.00 | 0.00 | 0.00 | 81 | 1020.4 |
| 20260507023017 | 27 | 71 | 9.7 | 20.9 | 0.00 | 0.00 | 0.00 | 82 | 1020.4 |
| 20260507021517 | 27 | 69 | 14.5 | 24.1 | 0.00 | 0.00 | 0.00 | 82 | 1020.4 |
| 20260507020016 | 27 | 81 | 4.8 | 24.1 | 0.00 | 0.00 | 0.00 | 81 | 1020.3 |
| 20260507014517 | 27 | 80 | 6.4 | 24.1 | 0.00 | 0.00 | 0.00 | 81 | 1020.3 |
| 20260507013014 | 27 | 72 | 11.3 | 25.7 | 0.00 | 0.00 | 0.00 | 81 | 1020.1 |
| 20260507011527 | 27 | 63 | 12.9 | 22.5 | 0.00 | 0.00 | 0.00 | 81 | 1020.1 |
| 20260507010014 | 27 | 61 | 11.3 | 24.1 | 0.00 | 0.00 | 0.00 | 81 | 1019.9 |
| 20260507004612 | 27 | 83 | 4.8 | 16.1 | 0.00 | 0.00 | 0.00 | 81 | 1019.6 |
| 20260507003017 | 27 | 96 | 3.2 | 14.5 | 0.00 | 0.00 | 0.00 | 81 | 1019.6 |
| 20260507001511 | 27 | 143 | 1.6 | 14.5 | 0.00 | 0.00 | 0.00 | 81 | 1019.4 |
| 20260507000010 | 27 | 111 | 0.0 | 16.1 | 0.00 | 0.00 | 0.00 | 80 | 1019.3 |
| 20260506234511 | 27 | 121 | 1.6 | 14.5 | 0.00 | 0.00 | 0.00 | 80 | 1019.1 |
| 20260506233012 | 27 | 144 | 3.2 | 14.5 | 0.00 | 0.00 | 0.00 | 80 | 1018.8 |
| 20260506231509 | 27 | 129 | 4.8 | 16.1 | 0.00 | 0.00 | 0.00 | 80 | 1018.6 |
| 20260506230008 | 27 | 84 | 3.2 | 11.3 | 0.00 | 0.00 | 0.00 | 79 | 1018.6 |
| 20260506224512 | 27 | 137 | 3.2 | 17.7 | 0.00 | 0.00 | 0.00 | 79 | 1018.4 |
| 20260506223007 | 27 | 82 | 1.6 | 16.1 | 0.00 | 0.00 | 0.00 | 78 | 1018.3 |
| 20260506221506 | 27 | 142 | 1.6 | 17.7 | 0.00 | 0.00 | 0.00 | 78 | 1018.1 |
| 20260506220005 | 27 | 142 | 3.2 | 8.0 | 0.00 | 0.00 | 0.00 | 77 | 1017.9 |
| 20260506214504 | 28 | 65 | 0.0 | 16.1 | 0.00 | 0.00 | 0.00 | 76 | 1017.9 |
| 20260506213004 | 28 | 101 | 0.0 | 14.5 | 0.00 | 0.00 | 0.00 | 74 | 1017.7 |
| 20260506211503 | 30 | 73 | 3.2 | 16.1 | 0.00 | 0.00 | 0.00 | 73 | 1017.6 |
| 20260506210004 | 30 | 72 | 6.4 | 24.1 | 0.00 | 0.00 | 0.00 | 72 | 1017.6 |
| 20260506204504 | 30 | 94 | 6.4 | 25.7 | 0.00 | 0.00 | 0.00 | 74 | 1017.4 |
| 20260506203003 | 31 | 62 | 11.3 | 20.9 | 0.00 | 0.00 | 0.00 | 71 | 1017.4 |
| 20260506201503 | 32 | 70 | 11.3 | 24.1 | 0.00 | 0.00 | 0.00 | 70 | 1017.5 |
| 20260506200059 | 32 | 63 | 8.0 | 27.4 | 0.00 | 0.00 | 0.00 | 68 | 1017.6 |